Weather History for EICK - January, 2014

Change the Weather History Date:

Monday, January 13, 2014

  Actual Average Record
Temperature  
Mean Temperature 38 °F -  
Max Temperature 43 °F 46 °F 53 °F (2002)
Min Temperature 34 °F 37 °F 28 °F (2015)
Degree Days  
Heating Degree Days 26    
Moisture  
Dew Point 35 °F    
Average Humidity 85    
Maximum Humidity 100    
Minimum Humidity 64    
Precipitation  
Precipitation 0.01 in 0.18 in - ()
Sea Level Pressure  
Sea Level Pressure 29.50 in    
Wind  
Wind Speed 8 mph ()    
Max Wind Speed 18 mph    
Max Gust Speed -    
Visibility 7.5 miles    
Events Rain    
Averages and records for this station are not official NWS values.
T = Trace of Precipitation, MM = Missing Value Source: Averaged Metar Reports

Daily Weather History Graph

Daily Weather History Graph

Search for Another Location

Airport or City:

Trip Planner

Search our weather history database for the weather conditions in past years. The results will help you decide how hot, cold, wet, or windy it might be!

Date:

Astronomy

Jan. 13, 2014 Rise Set
Actual Time 8:36 AM GMT 4:49 PM GMT
Civil Twilight 7:56 AM GMT 5:28 PM GMT
Nautical Twilight 7:14 AM GMT 6:11 PM GMT
Astronomical Twilight 6:34 AM GMT 6:51 PM GMT
Moon 2:55 PM GMT (1/13) 6:11 AM GMT (1/13)
Length of Visible Light 9h 31m
Length of Day
8h 13m
Waxing Gibbous, 94% of the Moon is Illuminated
Jan 13
Waxing Gibbous
Jan 16
Full
Jan 24
Last Quarter
Jan 30
New
Feb 6
First Quarter

Hourly Weather History & Observations

Time (GMT) Temp. Windchill Dew Point Humidity Pressure Visibility Wind Dir Wind Speed Gust Speed Precip Events Conditions
12:00 AM 35 °F - 34 °F 96% 29.63 in 12 mi SW 6.7 mph - -   Partly Cloudy
12:00 AM 35.6 °F 30.7 °F 33.8 °F 93% 29.59 in 6.2 mi SW 5.8 mph - N/A   Partly Cloudy
12:30 AM 35.6 °F 29.9 °F 33.8 °F 93% 29.59 in 6.2 mi SW 6.9 mph - N/A   Partly Cloudy
1:00 AM 36 °F - 35 °F 92% 29.62 in 16 mi SW 8.9 mph - -   Scattered Clouds
1:00 AM 35.6 °F 29.2 °F 33.8 °F 93% 29.59 in 6.2 mi SW 8.1 mph - N/A   Partly Cloudy
1:30 AM 35.6 °F 29.9 °F 33.8 °F 93% 29.56 in 6.2 mi SSW 6.9 mph - N/A   Partly Cloudy
2:00 AM 36 °F - 34 °F 89% 29.60 in 12 mi SSW 8.9 mph - -   Partly Cloudy
2:00 AM 35.6 °F 29.2 °F 33.8 °F 93% 29.56 in 6.2 mi SSW 8.1 mph - N/A   Scattered Clouds
2:30 AM 37.4 °F 32.1 °F 35.6 °F 93% 29.56 in 6.2 mi South 6.9 mph - N/A   Partly Cloudy
3:00 AM 39 °F - 37 °F 89% 29.58 in 12 mi South 8.9 mph - -   Mostly Cloudy
3:00 AM 39.2 °F 33.0 °F 37.4 °F 93% 29.53 in 6.2 mi South 9.2 mph - N/A   Mostly Cloudy
3:30 AM 41.0 °F 34.3 °F 37.4 °F 87% 29.53 in 6.2 mi South 11.5 mph - N/A   Scattered Clouds
4:00 AM 42 °F - 39 °F 84% 29.55 in 12 mi SSW 11.2 mph - - Rain Light Rain Showers
4:00 AM 42.8 °F 36.6 °F 39.2 °F 87% 29.50 in 6.2 mi SSW 11.5 mph - N/A   Mostly Cloudy
4:30 AM 41.0 °F 32.2 °F 39.2 °F 93% 29.50 in 6.2 mi SW 18.4 mph - N/A Rain Light Rain Showers
5:00 AM 41 °F - 39 °F 89% 29.52 in 6 mi South 17.9 mph - - Rain Light Rain Showers
5:00 AM 41.0 °F 32.5 °F 39.2 °F 93% 29.50 in 5.6 mi South 17.3 mph - N/A Rain Light Rain Showers
5:30 AM - - - N/A% 29.47 in 6.2 mi SSW 11.5 mph - N/A Rain Light Rain Showers
6:00 AM 40 °F - 38 °F 91% 29.49 in 12 mi South 11.2 mph - - Rain Light Rain Showers
6:00 AM 39.2 °F 32.0 °F 39.2 °F 100% 29.44 in 6.2 mi South 11.5 mph - N/A   Mostly Cloudy
6:30 AM 41.0 °F 33.5 °F 39.2 °F 93% 29.44 in 6.2 mi SSW 13.8 mph - N/A   Scattered Clouds
7:00 AM 40 °F - 39 °F 96% 29.48 in 16 mi SSW 11.2 mph - - Rain Light Rain Showers
7:00 AM 41.0 °F 34.7 °F 39.2 °F 93% 29.44 in 6.2 mi SSW 10.4 mph - N/A   Mostly Cloudy
7:30 AM 41.0 °F 33.5 °F 39.2 °F 93% 29.44 in 6.2 mi SW 13.8 mph - N/A   Scattered Clouds
8:00 AM 40 °F - 37 °F 83% 29.48 in 16 mi SW 13.4 mph - -   Mostly Cloudy
8:00 AM 41.0 °F 33.9 °F 37.4 °F 87% 29.44 in 6.2 mi SW 12.7 mph - N/A   Mostly Cloudy
8:30 AM 39.2 °F 33.0 °F 35.6 °F 87% 29.44 in 6.2 mi SW 9.2 mph - N/A   Mostly Cloudy
9:00 AM 39 °F - 36 °F 84% 29.48 in 16 mi SW 8.9 mph - - Rain Light Rain Showers
9:00 AM 39.2 °F 33.0 °F 35.6 °F 87% 29.44 in 6.2 mi SW 9.2 mph - N/A Rain Light Rain Showers
9:30 AM 39.2 °F 35.9 °F 35.6 °F 87% 29.44 in 6.2 mi SSW 4.6 mph - N/A   Mostly Cloudy
10:00 AM 38 °F - 36 °F 90% 29.47 in 22 mi SW 4.5 mph - - Rain Light Rain Showers
10:00 AM 37.4 °F 33.8 °F 35.6 °F 93% 29.44 in 6.2 mi SW 4.6 mph - N/A   Mostly Cloudy
10:30 AM 39.2 °F 35.0 °F 37.4 °F 93% 29.44 in 6.2 mi SSW 5.8 mph - N/A   Scattered Clouds
11:00 AM 39 °F - 37 °F 89% 29.47 in 25 mi SSW 4.5 mph - -   Partly Cloudy
11:00 AM 39.2 °F 35.9 °F 37.4 °F 93% 29.44 in 6.2 mi SSW 4.6 mph - N/A   Scattered Clouds
11:30 AM 39.2 °F 35.0 °F 37.4 °F 93% 29.44 in 6.2 mi SW 5.8 mph - N/A   Mostly Cloudy
12:00 PM 40 °F - 37 °F 87% 29.47 in 25 mi WSW 8.9 mph - -   Partly Cloudy
12:00 PM 41.0 °F 35.2 °F 37.4 °F 87% 29.44 in 6.2 mi WSW 9.2 mph - N/A   Mostly Cloudy
12:30 PM 41.0 °F 36.4 °F 37.4 °F 87% 29.44 in 6.2 mi WSW 6.9 mph - N/A   Scattered Clouds
1:00 PM 42.8 °F 37.5 °F 35.6 °F 76% 29.42 in 6.2 mi West 9.2 mph - N/A   Scattered Clouds
1:30 PM 42.8 °F 37.5 °F 35.6 °F 76% 29.42 in 6.2 mi West 9.2 mph - N/A   Partly Cloudy
2:00 PM 43 °F - 35 °F 64% 29.45 in 31 mi West 11.2 mph - -   Scattered Clouds
2:00 PM 42.8 °F 37.0 °F 35.6 °F 76% 29.42 in 6.2 mi West 10.4 mph - N/A   Partly Cloudy
2:30 PM 41.0 °F 33.9 °F 33.8 °F 76% 29.44 in 6.2 mi West 12.7 mph - N/A Rain Light Rain Showers
3:00 PM 41 °F - 35 °F 71% 29.47 in 31 mi West 8.9 mph - - Rain Light Rain Showers
3:00 PM 41.0 °F 35.2 °F 35.6 °F 81% 29.44 in 6.2 mi West 9.2 mph - N/A   Partly Cloudy
3:30 PM 41.0 °F 36.4 °F 33.8 °F 76% 29.44 in 6.2 mi West 6.9 mph - N/A   Partly Cloudy
4:00 PM 40 °F - 34 °F 73% 29.49 in 31 mi WSW 6.7 mph - -   Scattered Clouds
4:00 PM 41.0 °F 36.4 °F 33.8 °F 76% 29.44 in 6.2 mi WSW 6.9 mph - N/A   Partly Cloudy
4:30 PM 39.2 °F 35.0 °F 33.8 °F 81% 29.47 in 6.2 mi West 5.8 mph - N/A   Partly Cloudy
5:00 PM 39 °F - 34 °F 76% 29.50 in 31 mi WNW 6.7 mph - -   Scattered Clouds
5:00 PM 39.2 °F 35.0 °F 33.8 °F 81% 29.47 in 6.2 mi WNW 5.8 mph - N/A   Partly Cloudy
5:30 PM 39.2 °F 34.2 °F 33.8 °F 81% 29.47 in 6.2 mi WNW 6.9 mph - N/A   Partly Cloudy
6:00 PM 37 °F - 33 °F 79% 29.52 in 31 mi West 6.7 mph - -   Partly Cloudy
6:00 PM 37.4 °F 32.1 °F 33.8 °F 87% 29.47 in 6.2 mi West 6.9 mph - N/A   Partly Cloudy
6:30 PM 37.4 °F 32.8 °F 32.0 °F 81% 29.50 in 6.2 mi WNW 5.8 mph - N/A   Partly Cloudy
7:00 PM 37 °F - 32 °F 74% 29.55 in 31 mi West 6.7 mph - -   Scattered Clouds
7:00 PM 37.4 °F 32.8 °F 32.0 °F 81% 29.50 in 6.2 mi West 5.8 mph - N/A   Partly Cloudy
7:30 PM 37.4 °F 34.9 °F 32.0 °F 81% 29.50 in 6.2 mi West 3.5 mph - N/A   Partly Cloudy
8:00 PM 36 °F - 32 °F 79% 29.56 in 31 mi WSW 8.9 mph - -   Scattered Clouds
8:00 PM 35.6 °F 30.7 °F 32.0 °F 87% 29.53 in 6.2 mi WSW 5.8 mph - N/A   Partly Cloudy
8:30 PM 35.6 °F 29.2 °F 32.0 °F 87% 29.53 in 6.2 mi West 8.1 mph - N/A   Partly Cloudy
9:00 PM 36 °F - 31 °F 76% 29.57 in 25 mi West 6.7 mph - -   Scattered Clouds
9:00 PM 35.6 °F 30.7 °F 32.0 °F 87% 29.53 in 6.2 mi West 5.8 mph - N/A   Partly Cloudy
9:30 PM 35.6 °F 29.9 °F 30.2 °F 81% 29.53 in - West 6.9 mph - N/A   Clear
10:00 PM 35 °F - 31 °F 78% 29.59 in 25 mi WNW 6.7 mph - -  
10:00 PM 35.6 °F 30.7 °F 30.2 °F 81% 29.53 in - WNW 5.8 mph - N/A   Clear
10:30 PM 37.4 °F 32.8 °F 32.0 °F 81% 29.56 in - West 5.8 mph - N/A   Clear
11:00 PM 37 °F - 31 °F 72% 29.60 in 25 mi West 4.5 mph - -  
11:00 PM 37.4 °F 34.9 °F 32.0 °F 81% 29.56 in - Variable 3.5 mph - N/A   Clear
11:30 PM 35.6 °F 31.7 °F 30.2 °F 81% 29.56 in - West 4.6 mph - N/A   Clear